Temp
4 5 5 5 5 5 5 5 4 5 4 4 4 5 5 4 4 6 6 7 8 9 9 8 9 10 9 11 11 13 17 18 18 18 19 19 19 19 19 21 20 20 20 18 19
4 4 4 5 4 4 4 4 4 4 4 4 4 4 4 3 4 5 7 8 9 9 8 9 9 9 10 11 12 15 16 18 20 19 18 17 19 19 19 20 20 20 19 18 18
3 4 4 3 3 3 3 3 3 3 4 4 4 4 4 3 4 6 7 9 9 9 8 8 10 9 10 11 12 14 16 18 15 15 16 17 18 18 20 19 21 20 19 16 18
4 4 3 3 3 2 2 2 3 3 3 4 3 3 4 3 7 7 7 8 9 8 8 8 9 9 11 11 13 13 14 15 15 14 15 16 17 18 19 20 18 18 17 16 15
3 3 3 3 3 2 2 3 2 2 3 3 3 3 3 3 4 6 6 6 7 8 8 8 9 10 11 12 12 12 14 14 15 14 14 14 16 18 17 17 16 16 16 16 16
2 2 2 3 3 2 2 2 2 2 2 2 3 3 2 3 5 6 4 5 6 8 8 8 10 11 12 12 11 13 13 13 14 14 14 14 15 15 16 16 16 16 16 16 16
2 2 2 2 2 2 2 2 2 2 2 2 2 2 2 4 5 4 4 4 6 7 8 8 9 10 12 12 12 12 12 14 14 14 14 14 14 15 16 16 17 17 17 16 16
2 2 2 2 2 2 2 2 2 2 2 2 2 2 2 3 4 5 4 4 6 8 8 8 8 10 12 12 12 13 13 12 14 14 13 15 16 16 15 16 17 17 17 17 16
2 1 1 1 1 1 2 2 2 2 2 2 2 2 3 3 3 5 4 4 6 7 8 8 8 9 10 12 11 12 13 13 14 14 15 14 16 17 16 15 16 16 16 16 16
1 1 2 2 2 2 1 2 2 3 2 2 1 2 3 4 4 4 4 5 5 8 7 8 8 8 9 11 12 13 13 13 14 13 14 14 14 14 14 14 15 16 16 16 15
1 2 2 2 2 2 1 1 2 2 1 3 3 4 3 3 4 4 4 5 5 7 8 9 8 8 9 13 15 15 13 13 13 13 13 14 14 15 15 15 15 16 16 16 16
2 2 2 2 3 2 1 1 1 1 3 2 2 2 2 2 3 4 5 5 7 8 10 8 8 9 11 12 13 13 13 13 11 13 13 13 13 14 15 15 15 15 16 16 14
2 2 2 3 2 1 0 0 0 0 1 2 2 2 2 3 3 3 5 5 9 8 10 9 8 10 9 10 11 13 14 13 13 11 12 12 14 15 13 12 12 12 12 12 12
2 2 3 3 2 1 0 0 -0 0 2 3 3 3 2 2 4 3 4 7 9 7 7 8 7 9 9 9 10 9 12 13 12 12 13 11 16 13 13 12 13 12 12 12 11
1 2 2 2 1 1 0 -0 -0 0 3 2 3 1 2 3 1 5 5 7 10 7 7 5 6 6 5 8 9 8 11 12 11 11 12 12 14 13 13 12 12 12 11 11 10
2 3 3 2 2 1 0 0 0 2 3 3 3 3 3 2 2 5 5 7 9 7 7 6 6 7 7 7 8 7 8 10 10 11 10 12 12 14 13 13 12 12 11 11 10
3 3 3 3 2 1 0 0 3 4 2 3 3 2 3 3 4 5 7 9 9 8 6 5 5 5 6 5 5 6 8 8 10 10 12 9 10 14 12 12 13 12 11 10 10
3 4 3 2 1 1 1 2 5 4 3 4 3 2 3 6 5 6 7 7 8 10 8 7 7 5 5 7 8 9 10 12 11 11 12 8 11 13 11 11 11 10 10 9 10
4 4 3 2 1 1 1 5 3 3 3 3 3 4 6 6 6 7 6 6 7 8 8 7 7 5 6 8 10 9 10 9 8 7 11 13 11 11 11 11 11 11 10 10 9
5 5 4 3 2 1 4 4 4 3 2 2 5 9 6 8 7 9 8 6 8 8 9 8 7 8 8 9 9 10 9 10 8 10 12 12 12 13 10 11 11 12 11 10 9
5 5 5 4 5 3 4 4 3 4 3 5 7 8 9 8 9 9 8 8 8 8 9 10 10 7 9 8 9 8 9 8 10 9 12 13 14 14 13 12 12 11 10 9 9
6 5 5 5 4 3 5 4 4 6 4 6 8 9 9 9 9 9 9 9 8 9 10 9 9 8 8 8 8 9 10 10 10 8 7 9 13 12 13 12 10 11 10 9 7
4 5 6 5 4 5 6 6 6 7 7 8 9 9 9 9 9 9 8 8 8 9 10 10 9 7 7 8 8 8 8 8 7 7 7 12 12 10 11 10 11 10 10 8 7
3 4 4 4 3 4 4 6 7 6 8 8 8 9 9 9 9 8 8 8 8 9 8 9 8 8 10 9 8 6 7 7 6 8 9 10 11 11 12 12 12 11 9 8 6
2 2 2 4 6 4 6 7 8 7 8 8 9 8 9 9 8 8 8 8 9 8 9 10 7 7 8 8 8 7 7 7 6 8 9 11 11 12 12 12 11 11 8 7 5
1 2 1 3 3 6 6 6 7 7 7 8 8 8 9 9 8 8 9 9 9 9 9 8 7 7 6 7 7 7 7 7 7 9 8 9 9 12 12 11 10 9 7 6 4
1 1 1 4 5 7 4 5 6 7 7 7 8 8 8 7 6 8 7 8 9 9 8 8 7 7 7 7 7 8 8 8 7 8 9 8 11 12 11 11 9 8 6 5 4
Height
1510 1507 1505 1502 1500 1497 1496 1493 1491 1490 1489 1488 1487 1487 1486 1485 1483 1484 1483 1485 1488 1492 1494 1496 1498 1502 1505 1506 1507 1508 1502 1496 1496 1500 1500 1504 1507 1509 1511 1512 1514 1515 1515 1516 1515
1506 1503 1501 1498 1495 1492 1490 1488 1486 1485 1484 1483 1483 1482 1482 1481 1479 1473 1478 1482 1485 1489 1492 1494 1495 1499 1502 1503 1505 1502 1496 1489 1492 1497 1500 1504 1504 1506 1509 1510 1512 1513 1513 1513 1515
1502 1499 1496 1493 1490 1487 1485 1483 1481 1479 1478 1478 1478 1478 1478 1477 1474 1463 1470 1477 1480 1484 1489 1492 1496 1497 1499 1499 1501 1499 1489 1490 1498 1501 1501 1503 1504 1505 1505 1507 1506 1510 1512 1512 1513
1497 1494 1490 1487 1485 1482 1479 1477 1475 1473 1472 1472 1472 1473 1474 1475 1471 1462 1466 1470 1475 1480 1485 1488 1491 1493 1494 1494 1496 1497 1496 1495 1498 1499 1500 1502 1503 1503 1504 1504 1508 1509 1510 1511 1512
1493 1489 1485 1481 1479 1476 1474 1472 1470 1469 1468 1467 1468 1469 1470 1470 1463 1461 1460 1463 1469 1473 1477 1483 1485 1487 1488 1492 1495 1495 1495 1497 1497 1499 1500 1501 1502 1502 1503 1506 1507 1508 1509 1511 1512
1488 1484 1479 1476 1473 1471 1469 1467 1466 1465 1464 1464 1464 1465 1467 1465 1456 1459 1459 1461 1464 1468 1469 1477 1478 1483 1486 1488 1491 1493 1495 1496 1497 1498 1501 1502 1503 1505 1502 1505 1505 1507 1508 1509 1510
1483 1479 1475 1472 1469 1467 1464 1463 1461 1460 1459 1460 1461 1461 1460 1451 1453 1456 1457 1458 1461 1462 1466 1472 1478 1481 1480 1486 1489 1493 1494 1495 1495 1497 1499 1502 1499 1493 1501 1502 1502 1503 1505 1506 1507
1479 1475 1471 1467 1464 1462 1460 1457 1456 1455 1454 1455 1456 1457 1452 1449 1450 1451 1454 1453 1457 1459 1462 1471 1477 1479 1480 1482 1486 1490 1493 1493 1488 1492 1497 1499 1483 1489 1493 1496 1497 1499 1501 1503 1504
1475 1472 1467 1463 1460 1457 1455 1452 1450 1449 1449 1450 1452 1453 1449 1445 1445 1445 1449 1451 1455 1457 1462 1470 1476 1475 1480 1477 1485 1485 1481 1485 1485 1486 1491 1494 1485 1487 1491 1493 1495 1495 1497 1498 1499
1472 1467 1462 1458 1454 1451 1450 1447 1446 1445 1445 1446 1448 1454 1446 1443 1442 1443 1443 1450 1452 1454 1461 1468 1472 1470 1473 1472 1469 1470 1475 1479 1481 1484 1486 1487 1487 1489 1491 1492 1492 1491 1493 1494 1494
1468 1462 1456 1450 1446 1443 1445 1444 1446 1445 1443 1442 1443 1442 1440 1441 1438 1439 1442 1446 1450 1451 1452 1460 1464 1457 1462 1462 1460 1461 1473 1480 1482 1483 1484 1483 1485 1486 1487 1488 1488 1487 1487 1488 1489
1463 1457 1450 1444 1440 1437 1439 1441 1442 1443 1441 1439 1439 1439 1439 1441 1439 1436 1439 1445 1446 1444 1450 1461 1457 1461 1462 1464 1466 1467 1471 1475 1486 1482 1484 1485 1484 1483 1484 1483 1484 1483 1482 1483 1485
1461 1454 1447 1442 1438 1435 1434 1436 1437 1440 1441 1438 1436 1435 1435 1440 1440 1436 1441 1441 1439 1444 1443 1450 1457 1459 1464 1465 1467 1466 1466 1471 1476 1486 1486 1484 1478 1475 1481 1483 1483 1481 1480 1481 1482
1459 1453 1447 1443 1441 1437 1436 1435 1438 1440 1438 1437 1435 1434 1434 1436 1438 1431 1437 1439 1438 1443 1449 1455 1459 1459 1464 1463 1466 1475 1470 1472 1478 1478 1475 1484 1466 1475 1479 1481 1481 1481 1481 1481 1480
1458 1452 1447 1442 1442 1439 1441 1438 1439 1441 1428 1439 1435 1435 1431 1433 1433 1431 1430 1433 1433 1433 1443 1461 1461 1465 1471 1464 1467 1477 1472 1473 1477 1478 1480 1482 1476 1472 1478 1480 1480 1482 1482 1481 1480
1457 1452 1447 1445 1443 1442 1441 1441 1442 1438 1431 1438 1437 1437 1435 1434 1430 1431 1434 1434 1435 1441 1452 1459 1461 1464 1463 1467 1469 1478 1479 1479 1480 1480 1485 1476 1478 1469 1472 1474 1479 1481 1481 1480 1479
1455 1451 1448 1445 1445 1443 1441 1442 1436 1424 1445 1439 1438 1441 1439 1437 1432 1433 1431 1433 1435 1445 1453 1459 1466 1466 1467 1474 1479 1480 1475 1482 1484 1484 1470 1489 1484 1466 1475 1476 1477 1479 1480 1480 1479
1454 1450 1449 1445 1443 1441 1440 1441 1427 1438 1442 1440 1440 1439 1438 1432 1440 1436 1440 1441 1443 1439 1449 1456 1465 1471 1471 1469 1471 1472 1466 1460 1467 1468 1464 1489 1474 1464 1477 1478 1479 1481 1480 1479 1478
1452 1450 1448 1445 1443 1440 1441 1432 1446 1444 1445 1442 1438 1437 1433 1435 1437 1440 1448 1451 1452 1446 1449 1458 1467 1473 1472 1471 1467 1469 1467 1472 1478 1487 1472 1462 1472 1472 1475 1477 1478 1479 1478 1478 1477
1451 1450 1448 1445 1442 1442 1439 1442 1449 1448 1446 1445 1435 1425 1435 1435 1441 1438 1446 1454 1449 1452 1451 1458 1465 1471 1473 1472 1472 1467 1472 1472 1475 1471 1464 1464 1463 1455 1473 1473 1476 1477 1475 1476 1476
1450 1450 1450 1446 1444 1444 1445 1449 1451 1448 1448 1442 1434 1432 1435 1438 1439 1441 1449 1453 1451 1451 1449 1451 1453 1474 1470 1469 1468 1473 1472 1476 1469 1472 1455 1453 1450 1452 1464 1469 1473 1475 1476 1475 1474
1452 1453 1452 1448 1449 1450 1449 1450 1448 1447 1447 1443 1439 1436 1437 1438 1440 1442 1446 1447 1451 1450 1450 1453 1457 1466 1470 1471 1471 1470 1467 1466 1462 1474 1478 1470 1456 1463 1463 1469 1473 1474 1474 1473 1472
1455 1455 1452 1447 1454 1452 1449 1448 1448 1444 1442 1439 1439 1439 1441 1441 1443 1446 1449 1452 1452 1451 1448 1451 1459 1468 1474 1473 1473 1471 1470 1471 1473 1476 1476 1458 1458 1467 1468 1470 1470 1472 1471 1470 1469
1458 1458 1456 1454 1457 1455 1453 1449 1446 1446 1444 1443 1443 1442 1442 1444 1444 1448 1450 1453 1452 1452 1452 1451 1458 1459 1453 1455 1462 1472 1468 1470 1472 1471 1466 1462 1459 1462 1464 1466 1466 1467 1468 1467 1467
1461 1466 1467 1462 1456 1458 1454 1450 1446 1447 1446 1445 1444 1445 1443 1445 1447 1450 1453 1454 1454 1454 1454 1453 1460 1464 1463 1463 1464 1465 1466 1469 1473 1468 1465 1459 1459 1456 1461 1464 1464 1463 1464 1465 1466
1467 1468 1466 1464 1462 1457 1456 1454 1451 1450 1449 1447 1447 1448 1445 1445 1448 1449 1449 1451 1450 1454 1454 1456 1464 1465 1469 1467 1467 1468 1465 1465 1468 1465 1465 1466 1462 1457 1458 1460 1461 1460 1462 1462 1462
1470 1470 1469 1465 1462 1458 1463 1460 1456 1454 1453 1452 1451 1449 1449 1452 1452 1451 1452 1452 1452 1453 1456 1457 1460 1461 1461 1465 1462 1458 1456 1459 1461 1462 1462 1464 1455 1454 1456 1457 1458 1458 1458 1459 1458
Wind_Speed
20 21 22 23 23 26 22 21 19 20 21 20 21 21 20 17 23 26 24 24 22 17 6 12 23 17 13 13 10 12 9 17 23 21 17 9 15 12 8 11 10 8 6 3 3
20 23 24 25 23 22 23 24 22 21 21 21 22 20 17 17 20 31 30 26 28 17 17 12 22 20 14 13 10 13 14 21 14 12 12 12 15 14 10 14 14 12 9 7 7
23 24 24 24 24 23 23 23 21 21 21 21 20 18 16 15 22 25 30 30 25 23 16 17 20 21 15 15 15 15 17 12 6 9 8 13 12 10 12 12 15 16 8 4 9
25 26 25 26 26 24 22 21 20 19 19 18 17 17 15 10 7 5 10 29 33 24 20 19 23 18 12 12 21 11 20 10 7 7 8 9 10 11 13 5 9 8 4 1 5
27 26 27 25 22 20 19 19 17 17 15 15 16 15 12 11 21 12 5 8 18 29 29 27 28 30 19 16 16 16 6 16 11 6 5 7 9 10 14 11 6 6 6 3 3
27 26 25 23 21 19 18 18 16 15 15 14 13 12 10 14 29 22 24 13 6 18 35 32 24 31 19 13 17 11 19 5 18 12 5 7 8 7 11 16 13 11 12 10 9
26 25 24 24 21 20 18 17 16 16 14 13 13 10 13 27 12 7 17 21 10 9 34 33 17 28 12 11 19 6 12 18 15 12 10 11 16 18 17 13 12 12 15 15 13
26 26 26 26 21 19 19 19 18 17 15 12 12 10 14 14 21 26 23 27 12 13 23 30 23 29 12 10 16 16 7 10 15 21 7 12 21 2 10 26 24 22 21 20 20
28 29 27 26 25 24 22 19 17 16 16 13 11 8 10 9 12 19 20 18 12 14 18 22 23 15 15 16 10 15 13 20 8 21 14 17 10 11 8 9 13 12 15 20 23
28 29 28 28 27 22 20 20 16 12 6 4 6 4 11 7 12 11 15 20 10 17 17 21 18 7 9 14 16 21 22 13 16 9 20 15 17 4 8 6 10 12 13 15 18
26 33 34 29 26 26 17 15 4 2 6 6 6 6 3 8 7 10 15 16 11 20 11 24 11 9 17 24 12 12 17 10 14 6 12 16 12 15 17 17 17 19 19 18 17
31 32 30 26 19 15 9 8 5 2 6 8 13 17 16 7 6 8 14 11 11 10 19 11 17 21 15 17 10 12 16 14 3 9 7 6 9 11 14 19 18 18 18 18 15
30 30 28 20 12 8 8 12 9 8 3 5 4 6 11 9 4 12 24 9 17 15 23 13 2 9 12 17 11 14 15 13 6 7 3 2 8 11 5 2 3 1 2 2 3
27 27 23 21 7 16 14 5 6 9 2 1 2 3 4 4 4 10 28 9 5 15 11 5 1 13 15 14 13 8 6 11 11 10 4 3 3 4 5 7 7 8 7 5 5
25 26 19 17 9 12 7 4 2 1 0 3 2 2 2 3 8 6 23 6 14 6 7 4 11 12 2 8 13 4 7 10 6 4 1 5 4 7 8 9 9 8 7 7 6
20 23 18 8 9 8 5 4 3 3 6 4 3 3 1 3 6 11 9 2 11 10 14 5 5 8 3 4 8 10 9 10 6 2 3 5 4 8 8 9 8 5 6 6 7
16 14 15 9 6 5 7 2 2 4 0 5 3 2 2 4 2 4 4 7 4 5 4 4 4 4 8 7 10 6 10 4 3 3 1 1 4 4 8 4 8 6 5 5 6
15 10 9 11 7 10 10 2 10 6 6 2 4 5 3 5 5 3 8 5 9 5 5 3 4 1 4 2 7 14 2 3 5 6 5 3 5 4 2 6 7 2 1 3 5
14 7 9 16 13 14 4 6 4 4 3 1 3 7 4 7 4 7 6 3 2 3 4 4 3 4 2 1 3 5 3 2 5 2 2 4 3 2 7 10 5 2 3 3 5
12 4 17 18 11 5 2 6 3 1 2 2 4 8 7 14 5 3 4 1 1 2 2 5 6 4 7 8 9 1 8 3 1 5 4 5 4 6 12 10 6 4 2 2 3
8 2 17 15 9 7 4 3 2 3 5 4 5 8 11 5 6 4 2 2 3 1 2 5 3 4 3 1 5 4 2 2 1 2 2 4 3 7 17 13 9 5 1 0 2
6 2 13 7 2 1 2 3 2 2 4 4 2 6 4 3 5 4 4 1 1 1 3 1 5 4 2 3 2 1 2 3 3 4 1 1 3 6 15 10 2 5 2 1 0
3 4 11 10 3 4 2 1 2 6 5 4 4 4 3 3 4 4 3 3 1 1 3 5 4 5 2 2 2 5 4 3 4 2 4 2 4 3 7 7 8 7 4 1 1
3 2 6 8 4 3 5 4 3 2 5 4 3 2 3 5 6 4 5 3 4 5 6 3 3 0 3 3 4 4 8 8 3 3 4 4 2 8 8 5 7 4 2 2 1
5 3 3 4 5 7 7 5 4 5 6 11 4 7 2 2 3 4 3 4 3 3 2 1 3 2 3 2 2 3 5 10 6 3 4 2 4 6 3 7 6 5 1 1 1
4 3 5 4 8 5 9 8 8 4 6 4 5 7 4 3 3 5 5 3 3 1 2 2 3 2 2 2 5 5 7 10 12 11 11 8 14 10 9 4 4 1 1 2 1
7 5 2 4 4 2 3 4 6 6 4 6 2 4 8 4 1 3 1 4 4 4 2 1 4 1 0 2 3 5 9 12 8 8 11 9 7 3 7 5 5 4 4 3 1
Wind_Direction
314 311 309 312 308 304 303 297 297 293 295 292 291 293 294 302 270 250 244 234 237 230 180 200 196 194 187 193 191 191 220 222 215 223 220 200 209 207 208 215 199 209 243 214 231
317 318 314 308 306 304 299 295 289 284 286 283 282 283 283 288 298 260 234 240 241 237 218 209 196 197 192 193 191 201 217 220 222 218 215 181 209 192 188 199 210 210 227 259 229
322 316 316 313 308 307 307 303 294 284 279 277 277 277 280 285 300 274 236 233 241 229 221 212 199 197 200 189 193 212 225 199 209 198 183 171 192 187 198 199 205 206 202 238 225
323 320 315 312 309 310 305 301 300 292 281 274 271 267 269 260 253 71 191 233 238 220 208 203 199 192 206 193 198 220 227 249 206 172 166 170 181 201 208 187 185 161 149 181 208
325 321 318 312 309 309 308 305 300 296 292 282 273 267 269 244 243 238 121 141 192 215 206 199 199 200 203 200 199 223 199 216 221 164 164 141 190 217 227 202 186 223 254 221 220
325 318 320 318 313 310 308 302 300 296 297 286 279 261 242 252 258 270 258 257 246 215 204 196 205 197 210 208 200 208 222 203 225 216 215 228 220 217 228 235 234 235 246 245 240
323 321 318 315 310 308 305 301 291 288 284 278 275 260 241 240 255 271 245 249 242 212 201 199 200 190 200 189 198 193 206 225 232 221 229 237 255 228 233 234 229 227 241 246 243
325 326 320 318 311 311 307 303 297 292 287 278 270 249 253 257 265 266 263 244 233 215 208 196 207 197 200 184 179 200 221 196 214 217 195 187 250 228 233 229 238 243 243 244 248
331 324 315 312 310 304 301 302 300 290 278 268 255 222 262 267 255 254 237 227 230 217 191 192 200 197 191 177 171 199 210 214 197 209 199 205 246 219 250 205 223 232 235 241 250
325 322 321 315 308 301 303 295 299 294 280 200 186 202 247 266 282 266 225 205 229 184 171 189 196 186 195 188 196 196 211 206 206 181 207 215 236 201 191 225 245 246 247 245 246
329 326 327 322 308 280 282 299 266 221 204 219 203 224 200 317 279 248 185 196 211 176 170 186 204 215 176 195 222 210 196 197 219 187 199 223 232 233 250 268 263 260 258 255 252
337 338 336 330 332 317 271 254 237 219 295 258 253 244 257 297 307 208 180 182 198 180 170 170 210 204 190 203 183 184 192 197 123 194 213 176 233 233 234 246 259 265 262 263 265
341 346 346 348 351 3 303 235 233 235 275 291 254 251 232 218 247 228 185 221 187 184 181 170 231 195 190 196 183 200 200 182 188 155 174 252 248 221 188 201 206 149 193 219 267
349 349 351 360 4 17 23 15 243 262 245 113 205 178 186 172 226 233 187 223 132 180 112 131 185 159 191 204 172 172 233 169 145 179 197 228 187 141 121 115 130 115 103 86 66
353 355 3 4 20 24 18 48 274 68 160 14 76 100 209 267 327 161 191 293 152 120 113 142 170 137 142 177 155 119 146 138 146 136 190 197 242 121 146 136 127 111 88 71 60
351 358 6 18 32 44 66 86 73 238 52 5 73 47 5 4 328 132 186 60 83 71 80 109 132 159 143 130 104 135 91 86 87 114 218 159 249 161 178 160 141 117 82 62 52
349 354 6 27 39 23 354 315 247 28 160 2 31 29 321 214 176 76 109 112 116 131 100 72 44 71 77 90 131 185 148 112 146 190 218 158 201 59 151 167 145 120 89 53 42
351 344 360 1 342 332 352 228 45 18 39 338 35 357 337 142 107 83 81 72 32 79 99 85 112 19 187 205 171 177 269 177 161 184 138 145 220 140 264 173 156 184 119 53 44
359 8 349 351 344 337 316 61 38 329 336 2 239 216 120 83 81 66 50 67 56 17 86 113 84 110 196 12 163 177 201 28 105 67 181 169 190 154 131 153 193 176 142 73 35
8 47 9 1 2 13 317 77 69 2 321 337 342 43 96 114 68 111 66 229 80 223 229 161 109 98 147 174 55 227 130 162 320 154 202 185 207 146 169 162 149 137 117 85 16
21 53 1 2 42 27 43 40 298 256 216 280 25 93 115 108 97 82 80 154 224 113 132 127 82 122 173 216 163 137 182 63 69 311 210 165 141 154 162 148 119 73 43 244 2
42 45 360 12 59 15 30 339 298 303 192 271 16 62 74 82 71 90 126 64 112 247 97 44 103 135 111 21 318 285 202 196 240 183 29 11 94 176 155 149 112 11 340 217 35
31 347 9 30 56 20 40 77 318 18 7 17 47 43 37 68 98 69 82 34 50 268 151 158 116 117 154 193 188 221 194 149 99 48 201 206 118 131 194 222 263 285 317 206 65
19 34 349 41 55 1 356 357 38 20 41 47 66 89 89 56 44 125 117 36 3 74 67 93 99 274 164 70 127 191 195 186 156 186 161 223 106 165 171 229 304 315 211 172 84
38 67 11 354 354 342 350 354 44 17 11 24 64 37 43 113 98 109 113 145 77 13 67 51 105 93 92 105 171 211 204 195 204 187 218 88 197 168 260 295 299 319 145 162 141
46 18 351 316 324 352 8 11 27 25 6 27 71 37 45 85 14 172 149 185 175 114 67 31 118 133 128 162 215 227 211 210 221 228 248 257 284 270 273 284 283 333 233 227 143
33 25 352 350 352 16 2 324 338 321 68 55 47 81 62 31 3 86 73 102 122 155 123 85 139 162 73 318 285 253 232 203 191 210 217 221 234 273 284 300 292 260 257 220 238